Weather in Jounieh

Lebanon     33°59′38″N   35°38′02″E
temp.,
°C
wind,
m/s
gust,
m/s
humid.,
%
clouds,
%
prec.,
mm/h
press.,
hPa
HPBL,
m
13 april, tue
tue1300:00+3ese11733 0.0 102214
03:00+3e22760 0.0 102118
06:00+3e22670 0.0 102111
09:00+7w21550 0.0 1021387
12:00+10wnw32480 0.0 1020733
15:00+10wnw32561 0.0 1020694
18:00+9nw22685 0.0 1020354
21:00+7ne22740 0.0 102138
14 april, wed
wed1400:00+7e11525 0.0 102010
03:00+7e21430 0.0 101910
06:00+7ese22390 0.0 101910
09:00+12w21395 0.0 1020269
12:00+15wnw314039 0.0 1019638
15:00+15wnw31495 0.0 1018571
18:00+14nw11590 0.0 1018195
21:00+11ese116265 0.0 101910
15 april, thu
thu1500:00+12ese2242100 0.0 101811
03:00+11se22345 0.0 101711
06:00+12se223598 0.0 101714
09:00+16wsw11323 0.0 1017250
12:00+19wnw32320 0.0 1017796
15:00+19wnw32340 0.0 1016828
18:00+18nnw11460 0.0 1016297
21:00
16 april, fri
fri1600:00+14ese2236100 0.0 101611
03:00+14ese3235100 0.0 101615
06:00+14ese3330100 0.0 101518
09:00+19ssw1128100 0.0 1016263
12:00+20wnw3227100 0.0 10161226
15:00+20nw2131100 0.0 1015875
18:00+18n1145100 0.0 1016156
21:00+17e1141100 0.0 101611
17 april, sat
sat1700:00+16ese33380 0.0 101621
03:00+15ese43360 0.0 101521
06:00+15ese43330 0.0 101519
09:00+21sse22276 0.0 1015396
12:00+23wnw32275 0.0 1015943
15:00+22nw2128100 0.0 1015772
18:00+21e1136100 0.0 101584
21:00+18ese113660 0.0 101711